Location: Brotuna
(46.2000°N, 22.6000°E)
Time: 02:54:44
(UTC+00:00)

Cosmos 1818 - Pass Details

Date: 09 April 2020
Orbit: 778 x 796 km, 65.0° (Epoch: 04 June)

Event Time Altitude Azimuth Distance (km) Brightness Sun altitude
Rises 17:53:46 0° 226° (SW) 3,269 7.1 -8.2°
Reaches altitude 10° 17:56:12 10° 230° (SW) 2,346 6.4 -8.6°
Maximum altitude 18:01:32 60° 310° (NW) 903 4.2 -9.4°
Drops below altitude 10° 18:06:56 10° 31° (NNE) 2,370 6.0 -10.3°
Sets 18:09:25 0° 35° (NE) 3,305 6.7 -10.7°
